Torna al catalogo

COSMOS 2400 DEB

LostPO
NORAD 29420·DEBRIS·🇷🇺 Russia

Lanciato Aug 19, 2003 da Plesetsk Cosmodrome

Loading…

Prossimi Passaggi (prossime 24 ore)

TLE

ObsoletoSource: Space-Track

Epoca: Aug 18, 2013, 11:17 UTC

1 29420U 03037E   13230.47056590  .00000024  00000-0  10000-3 0  9995
2 29420  82.4632  27.2679 0020960 230.4640 129.5031 12.45319311450845

Traccia COSMOS 2400 DEB in tempo reale con AllMySat

Download on the App Store